User: anonymous   Login
Location: Petruro
(41.0333°N, 14.7833°E)
Time: 02:48:48
(UTC+00:00)
Language:

GPS 2-04 Rocket1 - Orbit

View from above orbital plane
View from above orbital plane
View from above satellite
View from above satellite

Ground track
Ground track

The orbit data is extracted from the following two-line orbital elements,

1 20303U 89085B   21260.69878474  .00003510  00000-0  10651-3 0  9997
2 20303  35.6436  13.2921 0089630 288.4897  70.6108 15.29864062738066
Epoch (UTC): 17 September 2021 16:46:15
Eccentricity: 0.0089630
inclination: 35.6436°
perigee height: 415 km
apogee height: 537 km
right ascension of ascending node: 13.2921°
argument of perigee: 288.4897°
revolutions per day: 15.29864062
mean anomaly at epoch: 70.6108°
orbit number at epoch: 73806

The dashed part of the orbit path shows where the satellite is in the earth's shadow,  

DLR